Content
SEND FEEDBACK

Daily
Averages
Monthly
Summary
Algeria

QUED FODDA, ALGERIA


Home > Africa > Algeria
Elevation: 367 feet     Latitude: 36 10N     Longitude: 001 30E

WEATHER
 
SELECT A DAY
Number of Records: 76,913;   Date Range: 12/25/01 - 7/23/14
 
SHARE

PRINT THIS DATA

[ ← Previous Day ]
WEATHER ALMANAC - JANUARY 31, 2013
[ Next Day → ]
[ °C ]   °F
Weather ElementAverageHighLow
Temperature55.8 °F70 °F (4:00 pm)46.4 °F (2:00 am)
Dewpoint42 °F48.2 °F (7:00 pm)37.4 °F (8:00 am)
Humidity59.6 %81 % (2:00 am)27 % (4:00 pm)
Barometer30.44 in30.51 in (10:00 am)30.39 in (5:00 pm)
Wind Speed3.9 mph13.8 mph (10:00 am)
Weather ElementAverage
Visibility14.3 mi
Wind DirectionENE (53.3 °)

Weather ElementTotal
Precipitation---
Heating Degree Days6.8 (Base 65)
Growing Degree Days8.2 (Base 50)
Averaged from 30 records on January 31, 2013
WEATHER CONDITIONS BREAKOUT
WIND DIRECTION BREAKOUT
WEATHER BY HOUR - JANUARY 31, 2013
[ °C ]   °F
Local TimeTemperatureDewpointHumidityBarometerVisibilityWind DirectionWind SpeedGust SpeedPrecipitationEventsConditions
1:00 AM49.0 °F41.0 °F67 %30.43 in12.0 miCalm
1:00 AM48.2 °F41.0 °F76 %30.42 inCalmClear
2:00 AM46.4 °F41.0 °F81 %30.42 inCalmClear
3:00 AM46.4 °F41.0 °F81 %30.42 inCalmClear
4:00 AM48.0 °F40.0 °F64 %30.44 in12.0 miENE (60°)5.8 mph
4:00 AM48.2 °F39.2 °F71 %30.42 inENE (60°)5.8 mphClear
5:00 AM46.4 °F39.2 °F76 %30.42 inENE (60°)4.6 mphClear
6:00 AM46.4 °F39.2 °F76 %30.42 inENE (60°)5.8 mphClear
7:00 AM48.0 °F38.0 °F60 %30.45 in12.0 miENE (60°)6.9 mph
7:00 AM48.2 °F39.2 °F71 %30.45 inENE (60°)6.9 mphClear
8:00 AM46.4 °F37.4 °F71 %30.45 inENE (60°)8.1 mphClear
9:00 AM48.2 °F37.4 °F66 %30.48 inNE (40°)11.5 mphClear
10:00 AM50.0 °F40.0 °F59 %30.51 in16.0 miENE (60°)13.8 mphClear
10:00 AM50.0 °F39.2 °F66 %30.48 inENE (60°)13.8 mphClear
11:00 AM55.4 °F41.0 °F58 %30.51 inENE (60°)12.7 mphClear
12:00 PM59.0 °F44.6 °F59 %30.51 inEast (80°)3.5 mphClear
1:00 PM64.0 °F44.0 °F37 %30.50 in16.0 miCalmClear
1:00 PM64.4 °F44.6 °F49 %30.48 inCalmClear
2:00 PM68.0 °F46.4 °F46 %30.45 inCalmClear
3:00 PM69.8 °F46.4 °F43 %30.42 inCalmClear
4:00 PM70.0 °F43.0 °F27 %30.43 in16.0 miWSW (240°)5.8 mphClear
4:00 PM69.8 °F42.8 °F38 %30.42 inWSW (240°)5.8 mphClear
5:00 PM69.8 °F42.8 °F38 %30.39 inWSW (240°)6.9 mphClear
6:00 PM68.0 °F44.6 °F43 %30.42 inCalmClear
7:00 PM62.6 °F48.2 °F59 %30.39 inCalmClear
8:00 PM60.8 °F44.6 °F55 %30.42 inCalmClear
9:00 PM57.2 °F46.4 °F67 %30.42 inCalmClear
10:00 PM55.0 °F43.0 °F54 %30.43 in16.0 miCalm
10:00 PM55.4 °F42.8 °F63 %30.42 inCalmClear
11:00 PM53.6 °F42.8 °F67 %30.42 inCalmClear
Hourly data recorded from DAOI, located miles away from Qued Fodda, Algeria







STORIES FROM OUR PARTNERS